This is the latest recevied weather packets stored in our database for station/object K1TTC. If no packets are shown the sender has not sent any weather packets the latest 10 day(s).
| Time | Temp. | Humidity | Pressure | Rain* | Wind** | Luminosity | Snow |
|---|---|---|---|---|---|---|---|
| 1777735783 | 10.56° C | 72% | 1013.1 hPa | 0 mm | - | 367 W/m² | - |
| 1777735183 | 10° C | 73% | 1013.2 hPa | 0 mm | - | 211 W/m² | - |
| 1777734583 | 10° C | 74% | 1013.4 hPa | 0 mm | - | 237 W/m² | - |
| 1777733983 | 10° C | 75% | 1013.3 hPa | 0 mm | - | 206 W/m² | - |
| 1777733383 | 9.44° C | 75% | 1013.4 hPa | 0 mm | - | 243 W/m² | - |
| 1777732783 | 9.44° C | 76% | 1013.5 hPa | 0 mm | - | 288 W/m² | - |
| 1777732184 | 8.89° C | 76% | 1013.6 hPa | 0 mm | - | 461 W/m² | - |
| 1777731664 | 8.33° C | 76% | 1013.8 hPa | 0 mm | - | 350 W/m² | - |
| 1777730982 | 8.33° C | 76% | 1013.9 hPa | 0 mm | - | 381 W/m² | - |
| 1777730381 | 8.33° C | 76% | 1014 hPa | 0 mm | - | 236 W/m² | - |
| 1777729781 | 8.33° C | 76% | 1014 hPa | 0 mm | - | 146 W/m² | - |
| 1777729183 | 7.78° C | 76% | 1013.8 hPa | 0.25 mm | - | 162 W/m² | - |
| 1777728583 | 7.78° C | 76% | 1014 hPa | 0.76 mm | - | 135 W/m² | - |
| 1777727981 | 7.78° C | 75% | 1013.9 hPa | 1.02 mm | - | 142 W/m² | - |
| 1777727380 | 7.22° C | 75% | 1013.9 hPa | 1.02 mm | - | 192 W/m² | - |
| 1777726883 | 7.22° C | 75% | 1013.8 hPa | 1.02 mm | - | 155 W/m² | - |
| 1777726249 | 7.22° C | 75% | 1013.8 hPa | 1.52 mm | - | 58 W/m² | - |
| 1777725580 | 7.22° C | 74% | 1014 hPa | 1.78 mm | - | 26 W/m² | - |
| 1777725053 | 7.78° C | 74% | 1013.9 hPa | 1.27 mm | - | 23 W/m² | - |
| 1777724449 | 7.78° C | 74% | 1013.8 hPa | 1.27 mm | - | 35 W/m² | - |
| 1777723775 | 7.78° C | 74% | 1013.9 hPa | 1.27 mm | - | 56 W/m² | - |
| 1777723175 | 7.78° C | 73% | 1014 hPa | 1.27 mm | - | 93 W/m² | - |
| 1777722575 | 7.78° C | 73% | 1014.1 hPa | 0.76 mm | - | 26 W/m² | - |
| 1777721975 | 7.78° C | 73% | 1014.2 hPa | 0.25 mm | - | 35 W/m² | - |
| 1777721376 | 7.78° C | 73% | 1013.9 hPa | 0.25 mm | - | 23 W/m² | - |
* Rain latest hour (hover to see other rain measurements)
** Current wind speed in m/s (hover to see current wind gust speed)